Regional Weather Roundup
Issued by NWS Portland, ME

Current Version | Previous Version | Text Only | Print | Product List | Glossary Off
Versions: 1 2 3 4 5 6 7 8 9 10 11 12 13 14 15 16 17 18 19 20 21 22 23 24 25 26 27 28 29 30 31 32 33 34 35 36 37 38 39 40 41 42 43 44 45 46 47 48 49 50

000
ASUS41 KGYX 211610
RWRGYX
WEATHER ROUNDUP FOR MAINE AND NEW HAMPSHIRE
NATIONAL WEATHER SERVICE GRAY ME
1200 PM EDT SAT OCT 21 2017

MEZ002-005-006-010-012-015-018-020-021-024-026-027-029-211700-
MAINE

CITY           SKY/WX    TMP DP  RH WIND       PRES   REMARKS
PORTLAND       MOSUNNY   69  41  36 S3        30.24F
SANFORD        SUNNY     72  40  31 W6G16     30.24F
BAR HARBOR     SUNNY     62  39  42 VRB7      30.25F
WISCASSET      CLOUDY    66  44  45 SE3       30.25S
ROCKLAND       MOSUNNY   62  46  55 E6        30.25S
FRYEBURG       NOT AVBL
LEWISTONAUBURN SUNNY     68  41  37 CALM      30.23F
AUGUSTA        SUNNY     68  37  32 VRB5      30.24S
WATERVILLE     SUNNY     63  41  44 CALM      30.22S
BANGOR         MOSUNNY   63  40  42 W6        30.24F
GREENVILLE       N/A     57  41  55 NW7       30.21F
MILLINOCKET    SUNNY     58  35  42 NW6       30.24F
HOULTON        SUNNY     54  31  41 NW9       30.22F
PRESQUE ISLE   NOT AVBL
FRENCHVILLE    SUNNY     46  26  45 VRB5      30.23R
CARIBOU        NOT AVBL
$$

NHZ002-005-008-009-011-012-014-211700-
NEW HAMPSHIRE

CITY           SKY/WX    TMP DP  RH WIND       PRES   REMARKS
PORTSMOUTH     SUNNY     71  41  34 W7        30.24F
ROCHESTER      SUNNY     72  41  32 SE5       30.25S
NASHUA         SUNNY     71  46  40 SE3       30.27F
MANCHESTER     SUNNY     68  39  34 CALM      30.26F
CONCORD        SUNNY     68  40  35 CALM      30.27F
LACONIA        SUNNY     68  39  34 SW8       30.25F
PLYMOUTH       FAIR      69  36  29 SW3       30.24F
BERLIN         SUNNY     67  37  33 W8        30.24F
WHITEFIELD     SUNNY     66  41  40 CALM      30.26F
JAFFREY        SUNNY     68  41  37 VRB7      30.30S
KEENE          SUNNY     67  42  40 CALM      30.30F
LEBANON        SUNNY     62  42  47 CALM      30.26F
MT WASHINGTON  MOSUNNY   43  39  87 NW46G62     N/A
$$

VTZ005-007-008-211700-
VERMONT

CITY           SKY/WX    TMP DP  RH WIND       PRES   REMARKS
ST JOHNSBURY     N/A     58  40  51 MISG      30.24F
BURLINGTON     MOSUNNY   68  38  33 S8        30.25F
$$

MAZ007-012-024-CTZ003-RIZ002-NYZ038-NYZ072-211700-
SOUTHERN NEW ENGLAND AND NY

CITY           SKY/WX    TMP DP  RH WIND       PRES   REMARKS
BOSTON         MOSUNNY   72  39  30 W7        30.28F
WORCESTER      SUNNY     67  36  31 W9        30.31S
NANTUCKET      SUNNY     64  53  67 SW9       30.33R
PROVIDENCE     MOSUNNY   70  48  45 SE7       30.31F
HARTFORD       MOSUNNY   68  44  42 VRB3      30.31F
ALBANY         MOSUNNY   64  41  42 S6        30.32F
NEW YORK CITY  MOSUNNY   73  45  36 CALM      30.33S
$$

ANZ081-ANZ082-ANZ150-NHZ014-MEZ023>029-211700-
COASTAL MARINE OBSERVATIONS

STATION/POSITION TIME  TEMP    WIND        PRES    WAVE
                       AIR SEA DIR/SP/G            HT/PER
                 (UTC) (F)     (DEG/KT/KT) (MB)    (FT/S)
MOUNT DESERT ROC 1600   57      CALM  /  2 1024.9S
MATINICUS ROCK   1500   57      CALM  /  2 1024.2S
ISLE OF SHOALS   1500   58     210/  8/  9 1024.5F
JEFFREYS LEDGE   1536      59                N/A     1/ 9
GEORGES BANK BUO 1450   58 58              1025.0    3/ 7
$$

.............KEY..............
   WCI - WIND CHILL
   TC  - TEMPERATURE IN CELSIUS
   VSB - VISIBILITY IN MILES
   HX  - HEAT INDEX
   FAIR- INDICATES FEW OR NO CLOUDS BELOW 12,000 FT, WITH NO
         SIGNIFICANT WEATHER AND/OR OBSTRUCTIONS TO VISIBILITY.






USA.gov is the U.S. government's official web portal to all federal, state and local government web resources and services.